Regional Weather Roundup
Issued by NWS Nashville, TN

Home | Current Version | Previous Version | Text Only | Print | Product List | Glossary On
Versions: 1 2 3 4 5 6 7 8 9 10 11 12 13 14 15 16 17 18 19 20 21 22 23 24 25 26 27
000
ASUS44 KOHX 180510
RWROHX
MIDDLE TENNESSEE HOURLY WEATHER ROUNDUP
NATIONAL WEATHER SERVICE NASHVILLE TN
1100 PM CST SUN DEC 17 2017

NOTE: "FAIR" INDICATES FEW OR NO CLOUDS BELOW 12,000 FEET WITH
NO SIGNIFICANT WEATHER AND/OR OBSTRUCTIONS TO VISIBILITY.

* THESE REPORTS ARE NOT UNDER NWS QUALITY CONTROL AND MAY NOT
  REPORT WEATHER SUCH AS PRECIPITATION AND FOG.


TNZ005>011-023>034-057-059-062>066-078-080-180600
...NORTHERN MIDDLE TENNESSEE...

CITY           SKY/WX    TMP DP  RH WIND       PRES   REMARKS
CLARKSVILLE    CLOUDY    45  42  89 CALM      30.13F FOG
CROSSVILLE     CLOUDY    42  41  96 S3        30.15S FOG
GALLATIN       CLOUDY    45  43  93 CALM      30.17F FOG
DICKSON          N/A     45  45 100 CALM      30.13S
NASHVILLE      FOG       47  46  97 CALM      30.15S VSB 3/4
PORTLAND       CLOUDY    45  45 100 S5        30.13F FOG
SMYRNA         CLOUDY    46  46 100 SE3       30.16F FOG
SPARTA         CLOUDY    46  45  93 CALM      30.14S FOG
SPRINGFIELD    CLOUDY    45  45 100 CALM      30.12S FOG
WEST NASHVILLE CLOUDY    46  45  93 CALM      30.13S FOG
$$
TNZ056-058-060-061-075>077-079-093>097-180600
...SOUTHERN MIDDLE TENNESSEE...

CITY           SKY/WX    TMP DP  RH WIND       PRES   REMARKS
COLUMBIA       CLOUDY    46  46 100 CALM      30.13R FOG
FAYETTEVILLE   FOG       46  46 100 S3        30.13F VSB 1/2
MCMINNVILLE    FOG       46  46 100 CALM      30.14F VSB 1/2
MURFREESBORO   CLOUDY    47  46  96 CALM      30.15S
PULASKI        CLOUDY    46  46 100 CALM      30.14S FOG
SHELBYVILLE    CLOUDY    46  46 100 CALM      30.14F FOG
TULLAHOMA      FOG       46  45  93 CALM      30.13F VSB 1/4
$$


...KEY TO REMARKS...
VSB - VISIBILITY IN MILES
WCI - WIND CHILL INDEX
HX  - HEAT INDEX





USA.gov is the U.S. government's official web portal to all federal, state and local government web resources and services.